When you browse on this site, cookies collect data to enhance your experience and personalize the content and advertising you see.
Visit our Privacy Policy to learn more. By continuing to use the site, you agree to this use of cookies and data.
  • In Lithuania
  • List of Countries
  • For 7 days
  • Water Temperature
  • Satellite Maps
  • Weather Map
  • Weather Widgets
  • user-avatar
    Login

    Hourly Weather Shaki

    Today, 19 June, Wednesday

    Time Temperature Precipitation Wind Pressure Humidity
    00:00 +24°C° 0.4 mm 2 mps 732 mmHg 71%
    01:00 +24°C° 0.5 mm 2 mps 732 mmHg 72%
    02:00 +23°C° 0.5 mm 2 mps 732 mmHg 72%
    03:00 +23°C° 0.5 mm 2 mps 732 mmHg 73%
    04:00 +24°C° 0.2 mm 1 mps 732 mmHg 70%
    05:00 +25°C° 0.2 mm 1 mps 732 mmHg 68%
    06:00 +26°C° 0.2 mm 1 mps 732 mmHg 65%
    07:00 +27°C° 0.2 mm 1 mps 732 mmHg 60%
    08:00 +28°C° 0.2 mm 1 mps 732 mmHg 56%
    09:00 +30°C° 0.2 mm 1 mps 732 mmHg 51%
    10:00 +31°C° 0.2 mm 2 mps 732 mmHg 46%
    11:00 +32°C° 0.2 mm 2 mps 732 mmHg 40%
    12:00 +34°C° 0.2 mm 3 mps 732 mmHg 35%
    13:00 +35°C° 0.2 mm 3 mps 732 mmHg 34%
    14:00 +35°C° 0.2 mm 3 mps 732 mmHg 33%
    15:00 +35°C° 0.2 mm 3 mps 731 mmHg 33%
    16:00 +35°C° 0.1 mm 3 mps 731 mmHg 35%
    17:00 +34°C° 0.1 mm 2 mps 731 mmHg 37%
    18:00 +34°C° 0.1 mm 2 mps 731 mmHg 39%
    19:00 +31°C° 0 mm 2 mps 731 mmHg 42%
    20:00 +29°C° 0 mm 2 mps 732 mmHg 44%
    21:00 +28°C° 0 mm 2 mps 732 mmHg 47%
    22:00 +27°C° 0 mm 2 mps 732 mmHg 47%
    23:00 +27°C° 0 mm 2 mps 732 mmHg 47%

    Tomorrow, 20 June, Thursday

    Time Temperature Precipitation Wind Pressure Humidity
    00:00 +27°C° 0 mm 2 mps 732 mmHg 48%
    01:00 +26°C° 0 mm 2 mps 732 mmHg 49%
    02:00 +26°C° 0 mm 2 mps 732 mmHg 50%
    03:00 +25°C° 0 mm 2 mps 732 mmHg 51%
    04:00 +26°C° 0 mm 2 mps 732 mmHg 49%
    05:00 +27°C° 0 mm 2 mps 732 mmHg 48%
    06:00 +28°C° 0 mm 2 mps 732 mmHg 47%
    07:00 +29°C° 0 mm 2 mps 732 mmHg 43%
    08:00 +30°C° 0 mm 2 mps 732 mmHg 38%
    09:00 +31°C° 0 mm 3 mps 732 mmHg 33%
    10:00 +33°C° 0 mm 3 mps 732 mmHg 32%
    11:00 +34°C° 0 mm 3 mps 731 mmHg 30%
    12:00 +35°C° 0 mm 3 mps 731 mmHg 29%
    13:00 +36°C° 0 mm 3 mps 731 mmHg 28%
    14:00 +36°C° 0 mm 3 mps 731 mmHg 27%
    15:00 +37°C° 0 mm 3 mps 730 mmHg 27%
    16:00 +36°C° 0 mm 4 mps 730 mmHg 29%
    17:00 +35°C° 0 mm 4 mps 730 mmHg 31%
    18:00 +35°C° 0 mm 4 mps 730 mmHg 33%
    19:00 +33°C° 0 mm 4 mps 731 mmHg 35%
    20:00 +30°C° 0 mm 4 mps 731 mmHg 38%
    21:00 +28°C° 0 mm 3 mps 731 mmHg 40%
    22:00 +28°C° 0 mm 3 mps 731 mmHg 40%
    23:00 +27°C° 0 mm 3 mps 731 mmHg 40%

    Day after tomorrow, 21 June, Friday

    Time Temperature Precipitation Wind Pressure Humidity
    00:00 +26°C° 0 mm 2 mps 731 mmHg 40%
    01:00 +26°C° 0 mm 2 mps 731 mmHg 41%
    02:00 +25°C° 0 mm 2 mps 731 mmHg 42%
    03:00 +25°C° 0 mm 2 mps 731 mmHg 43%
    04:00 +26°C° 0 mm 1 mps 731 mmHg 43%
    05:00 +27°C° 0 mm 1 mps 731 mmHg 42%
    06:00 +28°C° 0 mm 1 mps 732 mmHg 41%
    07:00 +29°C° 0 mm 2 mps 732 mmHg 38%
    08:00 +30°C° 0 mm 2 mps 732 mmHg 35%
    09:00 +33°C° 0 mm 3 mps 732 mmHg 32%
    10:00 +33°C° 0.1 mm 3 mps 732 mmHg 31%
    11:00 +34°C° 0.1 mm 3 mps 732 mmHg 30%
    12:00 +35°C° 0.1 mm 3 mps 732 mmHg 30%
    13:00 +35°C° 0.1 mm 3 mps 731 mmHg 30%
    14:00 +35°C° 0.1 mm 4 mps 731 mmHg 31%
    15:00 +36°C° 0.1 mm 5 mps 731 mmHg 31%
    16:00 +35°C° 0.1 mm 4 mps 731 mmHg 34%
    17:00 +34°C° 0.1 mm 4 mps 731 mmHg 37%
    18:00 +33°C° 0.1 mm 3 mps 731 mmHg 40%
    19:00 +31°C° 0.1 mm 3 mps 732 mmHg 43%
    20:00 +29°C° 0.1 mm 3 mps 732 mmHg 46%
    21:00 +27°C° 0.1 mm 3 mps 732 mmHg 49%
    22:00 +27°C° 0 mm 3 mps 732 mmHg 49%
    23:00 +26°C° 0 mm 2 mps 732 mmHg 49%

    22 June, Saturday

    Time Temperature Precipitation Wind Pressure Humidity
    00:00 +26°C° 0 mm 2 mps 732 mmHg 49%
    01:00 +26°C° 0 mm 2 mps 732 mmHg 49%
    02:00 +25°C° 0 mm 2 mps 732 mmHg 49%
    03:00 +25°C° 0 mm 2 mps 732 mmHg 49%
    04:00 +26°C° 0 mm 2 mps 733 mmHg 47%
    05:00 +27°C° 0 mm 1 mps 733 mmHg 46%
    06:00 +28°C° 0 mm 1 mps 733 mmHg 45%
    07:00 +29°C° 0 mm 1 mps 733 mmHg 42%
    08:00 +31°C° 0 mm 2 mps 733 mmHg 39%
    09:00 +32°C° 0 mm 2 mps 733 mmHg 36%
    10:00 +34°C° 0.1 mm 2 mps 733 mmHg 35%
    11:00 +35°C° 0.1 mm 3 mps 733 mmHg 34%
    12:00 +36°C° 0.1 mm 3 mps 733 mmHg 32%
    13:00 +36°C° 0.2 mm 3 mps 733 mmHg 32%
    14:00 +37°C° 0.2 mm 4 mps 733 mmHg 31%
    15:00 +37°C° 0.2 mm 4 mps 732 mmHg 30%
    16:00 +37°C° 0.1 mm 4 mps 732 mmHg 32%
    17:00 +36°C° 0.1 mm 4 mps 732 mmHg 34%
    18:00 +36°C° 0.1 mm 4 mps 732 mmHg 35%
    19:00 +34°C° 0 mm 3 mps 733 mmHg 38%
    20:00 +31°C° 0 mm 3 mps 733 mmHg 41%
    21:00 +29°C° 0 mm 2 mps 734 mmHg 44%
    22:00 +28°C° 0 mm 2 mps 733 mmHg 46%
    23:00 +28°C° 0 mm 3 mps 733 mmHg 49%

    23 June, Sunday

    Time Temperature Precipitation Wind Pressure Humidity
    00:00 +27°C° 0 mm 3 mps 733 mmHg 51%
    01:00 +26°C° 0 mm 2 mps 733 mmHg 51%
    02:00 +26°C° 0 mm 2 mps 733 mmHg 51%
    03:00 +26°C° 0 mm 1 mps 733 mmHg 51%
    04:00 +27°C° 0 mm 1 mps 733 mmHg 49%
    05:00 +28°C° 0 mm 1 mps 733 mmHg 47%
    06:00 +27°C° 0 mm 0 mps 734 mmHg 45%
    07:00 +31°C° 0 mm 1 mps 734 mmHg 42%
    08:00 +32°C° 0 mm 2 mps 734 mmHg 38%
    09:00 +34°C° 0 mm 2 mps 734 mmHg 35%
    10:00 +35°C° 0.1 mm 2 mps 734 mmHg 33%
    11:00 +36°C° 0.1 mm 3 mps 733 mmHg 32%
    12:00 +37°C° 0.1 mm 3 mps 733 mmHg 30%
    13:00 +38°C° 0 mm 3 mps 733 mmHg 29%
    14:00 +38°C° 0 mm 3 mps 733 mmHg 28%
    15:00 +39°C° 0 mm 3 mps 733 mmHg 27%
    16:00 +38°C° 0.1 mm 3 mps 732 mmHg 29%
    17:00 +38°C° 0.1 mm 3 mps 732 mmHg 30%
    18:00 +37°C° 0.1 mm 4 mps 732 mmHg 32%
    19:00 +35°C° 0 mm 3 mps 733 mmHg 35%
    20:00 +33°C° 0 mm 3 mps 733 mmHg 38%
    21:00 +30°C° 0 mm 3 mps 733 mmHg 41%
    22:00 +30°C° 0 mm 3 mps 733 mmHg 43%
    23:00 +29°C° 0 mm 3 mps 733 mmHg 45%

    24 June, Monday

    Time Temperature Precipitation Wind Pressure Humidity
    00:00 +28°C° 0 mm 3 mps 733 mmHg 46%
    01:00 +28°C° 0 mm 2 mps 733 mmHg 47%
    02:00 +27°C° 0 mm 2 mps 733 mmHg 47%
    03:00 +27°C° 0 mm 2 mps 733 mmHg 48%
    04:00 +28°C° 0 mm 1 mps 733 mmHg 46%
    05:00 +29°C° 0 mm 1 mps 733 mmHg 45%
    06:00 +28°C° 0 mm 0 mps 733 mmHg 44%
    07:00 +31°C° 0.1 mm 1 mps 733 mmHg 41%
    08:00 +33°C° 0.1 mm 1 mps 733 mmHg 38%
    09:00 +35°C° 0.1 mm 2 mps 733 mmHg 35%
    10:00 +36°C° 0.2 mm 2 mps 733 mmHg 33%
    11:00 +37°C° 0.2 mm 3 mps 733 mmHg 31%
    12:00 +38°C° 0.2 mm 3 mps 733 mmHg 30%
    13:00 +38°C° 0.1 mm 3 mps 732 mmHg 29%
    14:00 +39°C° 0.1 mm 3 mps 732 mmHg 27%
    15:00 +39°C° 0.1 mm 3 mps 732 mmHg 26%
    16:00 +39°C° 0.2 mm 3 mps 732 mmHg 28%
    17:00 +38°C° 0.2 mm 3 mps 732 mmHg 29%
    18:00 +38°C° 0.2 mm 3 mps 732 mmHg 31%
    19:00 +35°C° 0.5 mm 3 mps 732 mmHg 38%
    20:00 +31°C° 0.5 mm 3 mps 733 mmHg 45%
    21:00 +29°C° 0.5 mm 2 mps 733 mmHg 52%
    22:00 +28°C° 0 mm 2 mps 733 mmHg 53%
    23:00 +28°C° 0 mm 2 mps 733 mmHg 53%
    Show more